[[{"header":{"parameterUnit":"m.s-1","parameterCategory":1,"la1":30.2992,"la2":30.254,"lo1":-89.0895,"lo2":-89.0443,"dy":0.0025,"dx":0.0025,"nx":19,"ny":19,"refTime":"2026-04-21T03:00:00:Z","depth":0,"parameterNumber":2,"parameterNumberName":"U-component_of_WINDS"},"data":[0,0,0,-3.8726,-3.8729,-3.8853,-3.8853,-3.9024,-3.9025,0,0,0,0,0,0,0,0,0,0,0,-3.8699,-3.8701,-3.8726,-3.8729,-3.8853,-3.8853,-3.9023,-3.9025,0,0,0,0,0,0,0,0,0,0,0,-3.8698,-3.87,-3.8702,-3.873,-3.8852,-3.8853,-3.9023,-3.8925,0,0,0,0,0,0,0,0,0,0,-3.8803,-3.8787,-3.87,-3.8702,-3.8731,-3.8852,-3.8853,-3.892,-3.8931,-3.8974,0,-3.9015,0,-3.9023,-3.9038,-3.9038,0,0,0,-3.8722,-3.8778,-3.8803,-3.8702,-3.8732,-3.8852,-3.8795,-3.8926,-3.8939,-3.8989,-3.9018,-3.9024,-3.9026,-3.9039,-3.904,-3.9311,-3.9313,0,0,-3.8715,-3.8726,-3.8794,-3.8812,-3.8795,-3.8791,-3.8799,-3.8933,-3.8965,-3.9018,-3.9027,-3.9029,-3.904,-3.9042,-3.931,-3.9312,0,0,0,-3.8701,-3.8722,-3.8743,-3.8805,-3.8826,-3.8795,-3.8804,-3.8959,-3.8965,-3.9029,-3.9031,-3.9041,-3.9043,-3.9308,-3.9311,-3.9399,0,0,0,-3.8696,-3.8713,-3.874,-3.8748,-3.8824,-3.8895,-3.8827,-3.8956,-3.8971,-3.903,-3.9041,-3.9045,-3.9306,-3.9309,-3.9393,-3.9439,0,0,0,-3.8688,-3.8712,-3.8733,-3.8748,-3.8802,-3.8892,-3.8906,-3.8959,-3.8973,-3.9038,-3.9046,-3.9305,-3.9309,-3.9387,-3.943,-3.9512,0,0,0,-3.8682,-3.8811,-3.8735,-3.888,-3.8801,-3.8947,-3.8905,-3.9013,-3.908,-3.9042,-3.9307,-3.931,-3.9386,-3.9424,-3.9506,-3.9582,-3.9615,0,0,-3.8851,-3.8832,-3.8916,-3.8851,-3.9014,-3.8927,-3.9102,-3.9154,-3.915,-3.9257,-3.9264,-3.9395,-3.9429,-3.9511,-3.98,-3.9826,0,0,0,-3.8973,-3.9033,-3.9074,-3.9139,-3.9181,-3.9221,-3.9244,-3.9263,-3.9354,-3.9208,-3.9447,-3.9467,-3.9515,-3.955,-3.9573,-3.9612,-3.9328,-3.9327,-3.9327,-3.9227,-3.9215,-3.9353,-3.9356,-3.9419,-3.9441,-3.9491,-3.9519,-3.949,-3.9547,-3.9578,-3.9755,-3.9797,-3.9814,-3.9855,-3.9618,-3.9619,-3.9619,-3.9619,-3.9471,-3.9554,-3.9511,-3.9629,-3.9615,-3.9714,-3.974,-3.9716,-3.9804,-3.9731,-3.9772,-3.9691,-3.9843,-3.9878,-3.9626,-3.9625,-3.9624,-3.9623,-3.9623,-3.9635,-3.9672,-3.9693,-3.9784,-3.9855,-3.9853,-3.994,-3.9925,-3.9911,-3.9952,-3.9982,-3.9981,-3.9976,-3.9968,-3.9969,-3.9969,-3.997,-3.997,-3.9971,-3.9795,-3.9816,-3.9891,-3.9946,-3.9985,-4.0033,-4.0056,-4.0093,-4.013,-4.0112,-4.0112,-4.0076,-3.9861,-3.9806,-3.998,-3.9978,-3.9977,-3.9976,-3.9976,-4.0045,-3.9986,-4.0102,-4.0141,-4.0203,-4.0273,-4.0253,-4.033,-4.0358,-4.0401,-4.0356,-4.02,-4.0179,-4.0161,-4.0116,-4.0359,-4.0359,-4.0359,-4.0359,-4.0182,-4.017,-4.0284,-4.0346,-4.0406,-4.0399,-4.0528,-4.0547,-4.0557,-4.0573,-4.0536,-4.0475,-4.0458,-4.0447,-4.0423,-4.038,-4.0685,-4.0685,-4.0686,-4.0334,-4.0327,-4.0441,-4.045,-4.0497,-4.0537,-4.0658,-4.073,-4.0729,-4.0699,-4.0585,-4.0572,-4.0473,-4.0442,-4.0407,-4.037,-4.0291,0,0]},{"header":{"parameterUnit":"m.s-1","parameterCategory":1,"la1":30.2992,"la2":30.254,"lo1":-89.0895,"lo2":-89.0443,"dy":0.0025,"dx":0.0025,"nx":19,"ny":19,"refTime":"2026-04-21T03:00:00:Z","depth":0,"parameterNumber":3,"parameterNumberName":"V-component_of_WINDS"},"data":[0,0,0,3.2198,3.2199,3.2243,3.2243,3.231,3.2311,0,0,0,0,0,0,0,0,0,0,0,3.2194,3.2194,3.2198,3.22,3.2243,3.2243,3.231,3.2311,0,0,0,0,0,0,0,0,0,0,0,3.2193,3.2194,3.2195,3.22,3.2243,3.2243,3.231,3.2272,0,0,0,0,0,0,0,0,0,0,3.2228,3.2232,3.2194,3.2195,3.22,3.2243,3.2243,3.227,3.2275,3.2296,0,3.2317,0,3.2315,3.2316,3.2316,0,0,0,3.2193,3.2229,3.2233,3.2195,3.2201,3.2243,3.2221,3.2273,3.2278,3.2301,3.2318,3.232,3.2316,3.2316,3.2317,3.246,3.2461,0,0,3.2191,3.2206,3.223,3.2237,3.2232,3.222,3.2223,3.2275,3.2294,3.2318,3.2322,3.2317,3.2317,3.2318,3.2459,3.246,0,0,0,3.2188,3.2204,3.2207,3.2235,3.2242,3.2222,3.2225,3.2292,3.2292,3.2322,3.2318,3.2317,3.2318,3.2458,3.246,3.2521,0,0,0,3.2186,3.2203,3.2206,3.2216,3.2241,3.2268,3.224,3.2288,3.2293,3.2318,3.2317,3.2319,3.2457,3.2459,3.2517,3.2546,0,0,0,3.2188,3.2203,3.2212,3.2217,3.2236,3.2266,3.2269,3.2289,3.2291,3.2316,3.2319,3.2456,3.2459,3.2513,3.2541,3.2587,0,0,0,3.2194,3.2267,3.2213,3.2293,3.2236,3.2305,3.2268,3.2319,3.2348,3.2318,3.2457,3.2459,3.2512,3.2537,3.2583,3.2627,3.2647,0,0,3.2294,3.2279,3.2325,3.2278,3.2361,3.2297,3.2388,3.24,3.2389,3.2437,3.244,3.2518,3.254,3.2586,3.276,3.2777,0,0,0,3.2361,3.2394,3.2413,3.2441,3.2453,3.2464,3.2461,3.2466,3.2505,3.2417,3.2548,3.2561,3.2587,3.2607,3.2621,3.2641,3.247,3.247,3.247,3.2522,3.2505,3.2578,3.2565,3.2594,3.259,3.261,3.2615,3.2589,3.262,3.2633,3.2741,3.2765,3.2775,3.2797,3.2657,3.2657,3.2657,3.2658,3.2665,3.2707,3.2671,3.2729,3.271,3.2758,3.2757,3.2737,3.2778,3.273,3.2752,3.2699,3.2794,3.2812,3.2662,3.2661,3.2661,3.266,3.266,3.2766,3.2783,3.2788,3.2827,3.2859,3.2843,3.2884,3.2866,3.2848,3.287,3.288,3.2879,3.2874,3.2877,3.2877,3.2878,3.2878,3.2878,3.2879,3.2868,3.2872,3.2909,3.2928,3.2943,3.2961,3.2958,3.2972,3.2982,3.2965,3.2965,3.2934,3.2808,3.2775,3.2884,3.2883,3.2883,3.2882,3.2882,3.3014,3.2978,3.3036,3.3051,3.3071,3.3103,3.3079,3.3109,3.3118,3.3139,3.3104,3.3015,3.2998,3.2986,3.2959,3.3109,3.3109,3.3109,3.3109,3.3098,3.3088,3.3142,3.3168,3.3191,3.3175,3.3238,3.3237,3.323,3.3234,3.321,3.3173,3.3162,3.3151,3.3137,3.311,3.3296,3.3296,3.3296,3.3186,3.3177,3.3235,3.3229,3.3243,3.3255,3.3313,3.3343,3.3327,3.3303,3.3236,3.3228,3.3168,3.315,3.3121,3.3099,3.305,0,0]}]]